Back to Top

Language: 

My Weather Underground Personal Weather Station Historical Data with Graphs...

Delerius Weather Station Historical Data
Daily Summary for January 12, 2017 Units:  English    Metric   Both
« Previous Day
Next Day »
Daily Weekly Monthly Yearly Custom
  High: Low: Average:
Temperature: 41.4 °F 33.5 °F 37.4 °F
Dew Point: 36.9 °F 30.0 °F 34 °F
Humidity: 94 % 76 % 88 %
Wind Speed: 22.0 mph 0.0 mph 9.7 mph
Wind Gust: 35.0 mph - -
Wind:- - West
Pressure: 29.75 in 29.40 in -
Precipitation: 0.03 in    
Historical Graphs
 
 
Tabular Data for January 12, 2017
Time Temperature Dew Point Pressure Wind Wind Speed Wind Gust Humidity Rainfall Rate (Hourly) solar Conditions
00:05 41.4 °F 34.4 °F 29.74 in WNW 20.0 mph 30.0 mph 76 % 0.00 in 0 W/m2
00:15 41.3 °F 34.3 °F 29.74 in WNW 19.0 mph 20.0 mph 76 % 0.00 in 0 W/m2
00:25 41.2 °F 34.2 °F 29.75 in WNW 21.0 mph 27.0 mph 76 % 0.00 in 0 W/m2
00:30 41.0 °F 34.3 °F 29.74 in West 20.0 mph 20.0 mph 77 % 0.00 in 0 W/m2
00:35 40.8 °F 34.1 °F 29.74 in West 20.0 mph 20.0 mph 77 % 0.00 in 0 W/m2
00:40 40.7 °F 34.4 °F 29.74 in WNW 20.0 mph 20.0 mph 78 % 0.00 in 0 W/m2
00:45 40.7 °F 34.7 °F 29.74 in West 21.0 mph 23.0 mph 79 % 0.00 in 0 W/m2
00:50 40.7 °F 34.4 °F 29.74 in WNW 22.0 mph 25.0 mph 78 % 0.00 in 0 W/m2
00:55 40.8 °F 34.5 °F 29.74 in West 22.0 mph 29.0 mph 78 % 0.00 in 0 W/m2
01:05 40.8 °F 34.8 °F 29.73 in NW 21.0 mph 24.0 mph 79 % 0.00 in 0 W/m2
01:15 40.6 °F 34.6 °F 29.73 in WSW 18.0 mph 35.0 mph 79 % 0.00 in 0 W/m2
01:20 40.7 °F 34.7 °F 29.72 in West 21.0 mph 35.0 mph 79 % 0.00 in 0 W/m2
01:25 40.6 °F 34.6 °F 29.72 in WSW 20.0 mph 35.0 mph 79 % 0.00 in 0 W/m2
01:30 40.7 °F 34.7 °F 29.72 in West 20.0 mph 35.0 mph 79 % 0.00 in 0 W/m2
01:35 40.8 °F 34.8 °F 29.72 in West 22.0 mph 35.0 mph 79 % 0.00 in 0 W/m2
01:40 40.7 °F 34.7 °F 29.72 in West 21.0 mph 21.0 mph 79 % 0.00 in 0 W/m2
01:45 40.6 °F 34.9 °F 29.72 in WNW 19.0 mph 35.0 mph 80 % 0.00 in 0 W/m2
01:55 40.6 °F 34.6 °F 29.72 in West 19.0 mph 19.0 mph 79 % 0.00 in 0 W/m2
02:00 40.7 °F 34.4 °F 29.71 in WSW 19.0 mph 35.0 mph 78 % 0.00 in 0 W/m2
02:05 40.7 °F 34.7 °F 29.72 in West 18.0 mph 35.0 mph 79 % 0.00 in 0 W/m2
02:10 40.8 °F 35.1 °F 29.71 in WSW 20.0 mph 20.0 mph 80 % 0.00 in 0 W/m2
02:15 40.8 °F 35.4 °F 29.71 in West 22.0 mph 27.0 mph 81 % 0.00 in 0 W/m2
02:25 40.7 °F 35.3 °F 29.71 in WNW 19.0 mph 23.0 mph 81 % 0.00 in 0 W/m2
02:30 40.7 °F 35.3 °F 29.71 in West 19.0 mph 35.0 mph 81 % 0.00 in 0 W/m2
02:35 40.7 °F 35.3 °F 29.71 in West 18.0 mph 35.0 mph 81 % 0.00 in 0 W/m2
02:40 40.7 °F 35.3 °F 29.71 in West 19.0 mph 35.0 mph 81 % 0.00 in 0 W/m2
02:45 40.6 °F 35.2 °F 29.71 in WNW 18.0 mph 35.0 mph 81 % 0.00 in 0 W/m2
02:50 40.7 °F 35.6 °F 29.71 in NW 18.0 mph 18.0 mph 82 % 0.00 in 0 W/m2
03:00 40.3 °F 34.9 °F 29.71 in West 19.0 mph 35.0 mph 81 % 0.00 in 0 W/m2
03:05 40.3 °F 34.9 °F 29.71 in WNW 19.0 mph 35.0 mph 81 % 0.00 in 0 W/m2
03:10 40.2 °F 34.5 °F 29.71 in WSW 19.0 mph 19.0 mph 80 % 0.00 in 0 W/m2
03:15 40.1 °F 34.4 °F 29.70 in WNW 18.0 mph 24.0 mph 80 % 0.00 in 0 W/m2
03:20 39.9 °F 34.5 °F 29.71 in West 17.0 mph 35.0 mph 81 % 0.00 in 0 W/m2
03:25 39.7 °F 34.3 °F 29.71 in WNW 19.0 mph 35.0 mph 81 % 0.00 in 0 W/m2
03:30 39.4 °F 34.4 °F 29.70 in West 19.0 mph 35.0 mph 82 % 0.00 in 0 W/m2
03:40 38.7 °F 34.6 °F 29.70 in WNW 20.0 mph 20.0 mph 85 % 0.00 in 0 W/m2
03:45 38.4 °F 34.6 °F 29.71 in WNW 20.0 mph 35.0 mph 86 % 0.00 in 0 W/m2
03:50 38.3 °F 34.8 °F 29.71 in WNW 19.0 mph 35.0 mph 87 % 0.00 in 0 W/m2
03:55 38.3 °F 34.8 °F 29.71 in West 18.0 mph 35.0 mph 87 % 0.00 in 0 W/m2
04:00 38.3 °F 35.1 °F 29.71 in WNW 17.0 mph 17.0 mph 88 % 0.00 in 0 W/m2
04:05 38.3 °F 35.1 °F 29.72 in West 15.0 mph 35.0 mph 88 % 0.00 in 0 W/m2
04:10 38.4 °F 35.2 °F 29.72 in West 15.0 mph 35.0 mph 88 % 0.00 in 0 W/m2
04:15 38.4 °F 35.2 °F 29.71 in West 16.0 mph 35.0 mph 88 % 0.00 in 0 W/m2
04:25 38.3 °F 35.3 °F 29.70 in West 16.0 mph 25.0 mph 89 % 0.00 in 0 W/m2
04:35 38.2 °F 35.2 °F 29.70 in West 14.0 mph 35.0 mph 89 % 0.00 in 0 W/m2
04:40 38.3 °F 35.1 °F 29.70 in West 13.0 mph 13.0 mph 88 % 0.00 in 0 W/m2
04:45 38.3 °F 35.1 °F 29.70 in WNW 12.0 mph 35.0 mph 88 % 0.00 in 0 W/m2
04:50 38.4 °F 35.2 °F 29.71 in WSW 13.0 mph 35.0 mph 88 % 0.00 in 0 W/m2
04:55 38.4 °F 34.9 °F 29.70 in WNW 13.0 mph 35.0 mph 87 % 0.00 in 0 W/m2
05:05 38.5 °F 35.0 °F 29.71 in NNW 12.0 mph 14.0 mph 87 % 0.00 in 0 W/m2
05:15 38.6 °F 35.1 °F 29.71 in WNW 13.0 mph 35.0 mph 87 % 0.00 in 0 W/m2
05:20 38.6 °F 35.1 °F 29.70 in West 14.0 mph 35.0 mph 87 % 0.00 in 0 W/m2
05:25 38.4 °F 34.9 °F 29.70 in West 14.0 mph 35.0 mph 87 % 0.00 in 0 W/m2
05:30 38.2 °F 34.7 °F 29.70 in West 12.0 mph 12.0 mph 87 % 0.00 in 0 W/m2
05:35 38.1 °F 34.6 °F 29.71 in WSW 9.0 mph 35.0 mph 87 % 0.00 in 0 W/m2
05:40 38.1 °F 34.9 °F 29.70 in West 10.0 mph 10.0 mph 88 % 0.00 in 0 W/m2
05:50 38.1 °F 35.1 °F 29.71 in West 9.0 mph 35.0 mph 89 % 0.00 in 0 W/m2
05:55 38.1 °F 35.1 °F 29.71 in SW 8.0 mph 35.0 mph 89 % 0.00 in 0 W/m2
06:00 38.1 °F 35.1 °F 29.71 in WSW 7.0 mph 7.0 mph 89 % 0.00 in 0 W/m2
06:05 38.1 °F 35.1 °F 29.71 in WSW 6.0 mph 35.0 mph 89 % 0.00 in 0 W/m2
06:10 38.1 °F 35.1 °F 29.71 in WNW 6.0 mph 6.0 mph 89 % 0.00 in 0 W/m2
06:15 38.1 °F 35.1 °F 29.71 in WNW 7.0 mph 7.0 mph 89 % 0.00 in 0 W/m2
06:20 38.1 °F 35.1 °F 29.71 in SW 6.0 mph 6.0 mph 89 % 0.00 in 0 W/m2
06:30 38.1 °F 35.1 °F 29.71 in Calm   35.0 mph 89 % 0.00 in 0 W/m2
06:35 38.1 °F 35.1 °F 29.70 in Calm   35.0 mph 89 % 0.00 in 0 W/m2
06:40 38.1 °F 35.1 °F 29.70 in NE 1.0 mph 35.0 mph 89 % 0.00 in 0 W/m2
06:45 38.2 °F 35.2 °F 29.70 in SE 3.0 mph 35.0 mph 89 % 0.00 in 0 W/m2
06:50 38.3 °F 35.3 °F 29.70 in SSW 3.0 mph 3.0 mph 89 % 0.00 in 0 W/m2
06:55 38.3 °F 35.3 °F 29.70 in SSE 4.0 mph 8.0 mph 89 % 0.00 in 0 W/m2
07:00 38.1 °F 35.1 °F 29.70 in ESE 5.0 mph 35.0 mph 89 % 0.07 in 0 W/m2
07:10 38.2 °F 35.5 °F 29.69 in SW 8.0 mph 35.0 mph 90 % 0.04 in 0 W/m2
07:15 38.7 °F 35.7 °F 29.69 in SW 8.0 mph 35.0 mph 89 % 0.00 in 0 W/m2
07:20 39.1 °F 35.8 °F 29.69 in SSW 8.0 mph 35.0 mph 88 % 0.00 in 0 W/m2
07:25 39.3 °F 35.8 °F 29.69 in SSW 10.0 mph 35.0 mph 87 % 0.00 in 0 W/m2
07:30 39.3 °F 36.0 °F 29.69 in South 8.0 mph 35.0 mph 88 % 0.00 in 0 W/m2
07:35 39.2 °F 35.9 °F 29.69 in SSW 8.0 mph 35.0 mph 88 % 0.00 in 0 W/m2
07:45 39.2 °F 35.7 °F 29.69 in WSW 8.0 mph 35.0 mph 87 % 0.00 in 0 W/m2
07:50 39.2 °F 35.9 °F 29.69 in SSW 6.0 mph 35.0 mph 88 % 0.00 in 0 W/m2
07:55 39.1 °F 35.6 °F 29.68 in SW 8.0 mph 35.0 mph 87 % 0.00 in 0 W/m2
08:00 39.0 °F 35.5 °F 29.68 in SW 8.0 mph 35.0 mph 87 % 0.00 in 0 W/m2
08:05 39.0 °F 35.5 °F 29.68 in SSW 7.0 mph 35.0 mph 87 % 0.00 in 0 W/m2
08:10 38.9 °F 35.4 °F 29.68 in SW 6.0 mph 35.0 mph 87 % 0.00 in 0 W/m2
08:20 38.8 °F 35.3 °F 29.68 in SW 5.0 mph 35.0 mph 87 % 0.00 in 0 W/m2
08:25 38.7 °F 35.2 °F 29.68 in WSW 6.0 mph 35.0 mph 87 % 0.00 in 0 W/m2
08:30 38.6 °F 35.4 °F 29.68 in SW 7.0 mph 7.0 mph 88 % 0.00 in 5 W/m2
08:35 38.6 °F 35.4 °F 29.68 in West 8.0 mph 8.0 mph 88 % 0.00 in 0 W/m2
08:40 38.6 °F 35.4 °F 29.68 in WSW 7.0 mph 35.0 mph 88 % 0.00 in 9 W/m2
08:45 38.5 °F 35.3 °F 29.68 in West 7.0 mph 35.0 mph 88 % 0.00 in 11 W/m2
08:55 38.2 °F 35.2 °F 29.67 in SW 7.0 mph 35.0 mph 89 % 0.00 in 28 W/m2
09:00 38.0 °F 35.0 °F 29.66 in WSW 7.0 mph 35.0 mph 89 % 0.00 in 26 W/m2
09:05 37.9 °F 34.9 °F 29.66 in West 7.0 mph 35.0 mph 89 % 0.00 in 23 W/m2
09:15 37.6 °F 34.9 °F 29.65 in WSW 8.0 mph 35.0 mph 90 % 0.00 in 26 W/m2
09:20 37.6 °F 34.9 °F 29.65 in WNW 8.0 mph 8.0 mph 90 % 0.00 in 44 W/m2
09:25 37.6 °F 34.9 °F 29.65 in NW 8.0 mph 35.0 mph 90 % 0.00 in 49 W/m2
09:35 37.7 °F 35.0 °F 29.64 in West 9.0 mph 35.0 mph 90 % 0.00 in 74 W/m2
09:40 37.8 °F 35.4 °F 29.64 in WSW 8.0 mph 8.0 mph 91 % 0.00 in 76 W/m2
09:50 37.7 °F 35.3 °F 29.63 in West 6.0 mph 35.0 mph 91 % 0.00 in 70 W/m2
09:55 37.7 °F 35.3 °F 29.63 in WSW 6.0 mph 35.0 mph 91 % 0.00 in 72 W/m2
10:00 37.7 °F 35.3 °F 29.63 in West 6.0 mph 35.0 mph 91 % 0.00 in 76 W/m2
10:05 37.9 °F 35.5 °F 29.63 in WSW 9.0 mph 35.0 mph 91 % 0.00 in 67 W/m2
10:10 38.2 °F 35.5 °F 29.63 in West 10.0 mph 10.0 mph 90 % 0.00 in 79 W/m2
10:15 38.4 °F 35.7 °F 29.62 in WSW 9.0 mph 35.0 mph 90 % 0.00 in 88 W/m2
10:20 38.5 °F 35.8 °F 29.62 in WNW 8.0 mph 35.0 mph 90 % 0.00 in 93 W/m2
10:25 38.6 °F 35.9 °F 29.62 in WSW 9.0 mph 35.0 mph 90 % 0.00 in 65 W/m2
10:35 38.8 °F 36.1 °F 29.62 in WSW 7.0 mph 13.0 mph 90 % 0.00 in 56 W/m2
10:40 38.8 °F 36.1 °F 29.62 in WSW 9.0 mph 9.0 mph 90 % 0.00 in 60 W/m2
10:45 38.9 °F 36.2 °F 29.62 in West 10.0 mph 10.0 mph 90 % 0.00 in 81 W/m2
10:50 39.0 °F 36.3 °F 29.62 in West 9.0 mph 9.0 mph 90 % 0.00 in 98 W/m2
10:55 39.2 °F 36.5 °F 29.61 in WSW 7.0 mph 35.0 mph 90 % 0.00 in 97 W/m2
11:00 39.3 °F 36.3 °F 29.61 in WSW 7.0 mph 35.0 mph 89 % 0.00 in 76 W/m2
11:10 39.5 °F 36.8 °F 29.60 in WSW 7.0 mph 35.0 mph 90 % 0.00 in 98 W/m2
11:15 39.6 °F 36.9 °F 29.59 in West 6.0 mph 35.0 mph 90 % 0.00 in 97 W/m2
11:20 39.6 °F 36.9 °F 29.59 in SW 7.0 mph 35.0 mph 90 % 0.00 in 69 W/m2
11:25 39.5 °F 36.5 °F 29.59 in West 8.0 mph 35.0 mph 89 % 0.00 in 37 W/m2
11:30 39.4 °F 36.7 °F 29.58 in WSW 7.0 mph 7.0 mph 90 % 0.00 in 72 W/m2
11:35 39.4 °F 36.7 °F 29.58 in WSW 6.0 mph 35.0 mph 90 % 0.00 in 76 W/m2
11:40 39.4 °F 36.7 °F 29.58 in WSW 7.0 mph 35.0 mph 90 % 0.00 in 72 W/m2
11:50 39.4 °F 36.4 °F 29.58 in SW 7.0 mph 35.0 mph 89 % 0.00 in 62 W/m2
11:55 39.4 °F 36.4 °F 29.57 in WSW 8.0 mph 35.0 mph 89 % 0.00 in 63 W/m2
12:00 39.4 °F 36.4 °F 29.57 in WSW 8.0 mph 35.0 mph 89 % 0.00 in 63 W/m2
12:05 39.4 °F 36.1 °F 29.57 in WSW 8.0 mph 35.0 mph 88 % 0.00 in 51 W/m2
12:10 39.4 °F 36.1 °F 29.56 in West 9.0 mph 9.0 mph 88 % 0.00 in 60 W/m2
12:15 39.4 °F 36.1 °F 29.56 in WSW 10.0 mph 10.0 mph 88 % 0.00 in 62 W/m2
12:25 39.4 °F 35.9 °F 29.55 in West 9.0 mph 35.0 mph 87 % 0.00 in 63 W/m2
12:30 39.3 °F 36.0 °F 29.55 in WSW 7.0 mph 7.0 mph 88 % 0.00 in 51 W/m2
12:35 39.3 °F 36.0 °F 29.55 in WNW 7.0 mph 35.0 mph 88 % 0.00 in 30 W/m2
12:40 39.3 °F 36.0 °F 29.54 in West 8.0 mph 35.0 mph 88 % 0.00 in 25 W/m2
12:45 39.0 °F 36.0 °F 29.54 in NW 8.0 mph 35.0 mph 89 % 0.00 in 28 W/m2
12:50 38.7 °F 35.7 °F 29.54 in WNW 8.0 mph 35.0 mph 89 % 0.00 in 32 W/m2
12:55 38.5 °F 35.8 °F 29.54 in NW 8.0 mph 35.0 mph 90 % 0.00 in 18 W/m2
13:05 37.4 °F 34.7 °F 29.53 in WNW 7.0 mph 35.0 mph 90 % 0.00 in 39 W/m2
13:10 37.2 °F 34.8 °F 29.52 in WNW 5.0 mph 5.0 mph 91 % 0.00 in 39 W/m2
13:15 37.1 °F 35.0 °F 29.52 in WSW 3.0 mph 35.0 mph 92 % 0.00 in 53 W/m2
13:20 37.1 °F 35.0 °F 29.51 in WSW 2.0 mph 2.0 mph 92 % 0.00 in 51 W/m2
13:25 36.9 °F 34.8 °F 29.51 in WSW 2.0 mph 35.0 mph 92 % 0.00 in 47 W/m2
13:30 36.9 °F 34.8 °F 29.51 in WSW 2.0 mph 35.0 mph 92 % 0.00 in 44 W/m2
13:40 36.7 °F 34.9 °F 29.50 in WSW 2.0 mph 2.0 mph 93 % 0.00 in 42 W/m2
13:45 36.6 °F 34.8 °F 29.50 in WSW 1.0 mph 35.0 mph 93 % 0.00 in 46 W/m2
13:50 36.5 °F 34.7 °F 29.49 in Calm   35.0 mph 93 % 0.00 in 51 W/m2
13:55 36.5 °F 34.7 °F 29.49 in Calm   35.0 mph 93 % 0.00 in 49 W/m2
14:00 36.5 °F 34.7 °F 29.48 in Calm   35.0 mph 93 % 0.00 in 51 W/m2
14:05 36.5 °F 34.7 °F 29.48 in Calm   35.0 mph 93 % 0.00 in 53 W/m2
14:10 36.7 °F 35.1 °F 29.48 in Calm   35.0 mph 94 % 0.00 in 49 W/m2
14:20 36.9 °F 35.3 °F 29.48 in West 4.0 mph 35.0 mph 94 % 0.00 in 44 W/m2
14:25 37.0 °F 35.4 °F 29.47 in West 5.0 mph 35.0 mph 94 % 0.00 in 39 W/m2
14:30 37.1 °F 35.3 °F 29.47 in WSW 4.0 mph 35.0 mph 93 % 0.00 in 33 W/m2
14:35 37.2 °F 35.4 °F 29.47 in West 5.0 mph 35.0 mph 93 % 0.00 in 33 W/m2
14:40 37.2 °F 35.4 °F 29.47 in West 4.0 mph 35.0 mph 93 % 0.00 in 30 W/m2
14:45 37.3 °F 35.5 °F 29.46 in West 5.0 mph 35.0 mph 93 % 0.00 in 26 W/m2
14:50 37.3 °F 35.5 °F 29.46 in West 5.0 mph 35.0 mph 93 % 0.00 in 28 W/m2
15:00 37.3 °F 35.2 °F 29.46 in WNW 5.0 mph 5.0 mph 92 % 0.00 in 25 W/m2
15:05 37.3 °F 35.2 °F 29.45 in WNW 4.0 mph 35.0 mph 92 % 0.00 in 23 W/m2
15:10 37.4 °F 35.3 °F 29.45 in West 3.0 mph 35.0 mph 92 % 0.00 in 23 W/m2
15:15 37.3 °F 35.2 °F 29.44 in West 4.0 mph 35.0 mph 92 % 0.00 in 23 W/m2
15:20 37.3 °F 35.2 °F 29.44 in WNW 4.0 mph 4.0 mph 92 % 0.00 in 19 W/m2
15:30 37.2 °F 34.8 °F 29.44 in WNW 3.0 mph 3.0 mph 91 % 0.00 in 14 W/m2
15:35 37.1 °F 34.7 °F 29.44 in WNW 3.0 mph 35.0 mph 91 % 0.00 in 12 W/m2
15:40 37.1 °F 34.7 °F 29.44 in NNW 3.0 mph 35.0 mph 91 % 0.00 in 9 W/m2
15:45 37.1 °F 34.7 °F 29.44 in NW 3.0 mph 35.0 mph 91 % 0.00 in 7 W/m2
15:50 37.0 °F 34.6 °F 29.44 in NNW 3.0 mph 3.0 mph 91 % 0.00 in 7 W/m2
16:00 36.9 °F 34.5 °F 29.43 in WNW 5.0 mph 35.0 mph 91 % 0.00 in 5 W/m2
16:05 36.9 °F 34.5 °F 29.43 in NNW 6.0 mph 35.0 mph 91 % 0.00 in 0 W/m2
16:10 36.9 °F 34.2 °F 29.43 in WNW 7.0 mph 35.0 mph 90 % 0.00 in 0 W/m2
16:15 36.9 °F 34.2 °F 29.43 in WNW 6.0 mph 35.0 mph 90 % 0.00 in 0 W/m2
16:20 36.9 °F 34.2 °F 29.42 in WNW 5.0 mph 35.0 mph 90 % 0.00 in 0 W/m2
16:25 36.8 °F 34.1 °F 29.42 in NW 7.0 mph 35.0 mph 90 % 0.00 in 0 W/m2
16:30 36.8 °F 34.1 °F 29.43 in NW 8.0 mph 8.0 mph 90 % 0.00 in 0 W/m2
16:40 36.8 °F 34.1 °F 29.42 in WNW 7.0 mph 35.0 mph 90 % 0.00 in 0 W/m2
16:45 36.9 °F 34.2 °F 29.42 in WNW 8.0 mph 35.0 mph 90 % 0.00 in 0 W/m2
16:50 36.7 °F 33.8 °F 29.41 in NW 8.0 mph 8.0 mph 89 % 0.00 in 0 W/m2
16:55 36.5 °F 33.6 °F 29.41 in NW 8.0 mph 35.0 mph 89 % 0.00 in 0 W/m2
17:00 36.3 °F 33.4 °F 29.42 in WNW 8.0 mph 35.0 mph 89 % 0.00 in 0 W/m2
17:05 36.2 °F 33.3 °F 29.41 in WNW 9.0 mph 35.0 mph 89 % 0.00 in 0 W/m2
17:10 36.2 °F 33.3 °F 29.42 in WNW 8.0 mph 35.0 mph 89 % 0.00 in 0 W/m2
17:15 36.1 °F 33.2 °F 29.41 in NW 7.0 mph 35.0 mph 89 % 0.00 in 0 W/m2
17:25 36.1 °F 32.9 °F 29.41 in NW 8.0 mph 11.0 mph 88 % 0.00 in 0 W/m2
17:30 36.1 °F 32.9 °F 29.41 in NW 7.0 mph 35.0 mph 88 % 0.00 in 0 W/m2
17:35 36.0 °F 32.8 °F 29.41 in NW 6.0 mph 35.0 mph 88 % 0.00 in 0 W/m2
17:40 36.0 °F 33.1 °F 29.41 in NW 6.0 mph 35.0 mph 89 % 0.00 in 0 W/m2
17:45 36.0 °F 33.1 °F 29.40 in NW 8.0 mph 35.0 mph 89 % 0.00 in 0 W/m2
17:50 36.0 °F 33.1 °F 29.40 in NW 8.0 mph 35.0 mph 89 % 0.00 in 0 W/m2
17:55 36.0 °F 32.8 °F 29.40 in WNW 9.0 mph 35.0 mph 88 % 0.00 in 0 W/m2
18:05 35.9 °F 32.7 °F 29.40 in WNW 9.0 mph 11.0 mph 88 % 0.00 in 0 W/m2
18:10 35.9 °F 32.7 °F 29.40 in WNW 11.0 mph 35.0 mph 88 % 0.00 in 0 W/m2
18:15 35.8 °F 32.6 °F 29.40 in WNW 11.0 mph 35.0 mph 88 % 0.00 in 0 W/m2
18:20 35.8 °F 32.3 °F 29.40 in WNW 11.0 mph 11.0 mph 87 % 0.00 in 0 W/m2
18:25 35.8 °F 32.3 °F 29.40 in WNW 10.0 mph 35.0 mph 87 % 0.00 in 0 W/m2
18:30 35.7 °F 32.2 °F 29.40 in West 9.0 mph 35.0 mph 87 % 0.00 in 0 W/m2
18:35 35.6 °F 31.8 °F 29.41 in WNW 10.0 mph 35.0 mph 86 % 0.00 in 0 W/m2
18:45 35.3 °F 31.2 °F 29.40 in NW 10.0 mph 35.0 mph 85 % 0.00 in 0 W/m2
18:50 35.1 °F 31.0 °F 29.41 in NNW 8.0 mph 8.0 mph 85 % 0.00 in 0 W/m2
18:55 34.9 °F 30.8 °F 29.41 in NNW 8.0 mph 10.0 mph 85 % 0.00 in 0 W/m2
19:00 34.8 °F 30.8 °F 29.40 in NW 9.0 mph 35.0 mph 85 % 0.00 in 0 W/m2
19:05 34.8 °F 30.8 °F 29.40 in NNW 9.0 mph 35.0 mph 85 % 0.00 in 0 W/m2
19:10 34.7 °F 30.9 °F 29.40 in WNW 9.0 mph 9.0 mph 86 % 0.00 in 0 W/m2
19:20 34.6 °F 30.8 °F 29.40 in WNW 8.0 mph 35.0 mph 86 % 0.00 in 0 W/m2
19:25 34.5 °F 30.7 °F 29.40 in WNW 8.0 mph 35.0 mph 86 % 0.00 in 0 W/m2
19:30 34.4 °F 30.6 °F 29.41 in WNW 9.0 mph 35.0 mph 86 % 0.00 in 0 W/m2
19:35 34.4 °F 30.6 °F 29.41 in NW 9.0 mph 35.0 mph 86 % 0.00 in 0 W/m2
19:40 34.3 °F 30.5 °F 29.40 in NW 10.0 mph 10.0 mph 86 % 0.00 in 0 W/m2
19:45 34.3 °F 30.5 °F 29.40 in WNW 9.0 mph 35.0 mph 86 % 0.00 in 0 W/m2
19:50 34.2 °F 30.4 °F 29.40 in NW 8.0 mph 35.0 mph 86 % 0.00 in 0 W/m2
20:00 34.0 °F 30.5 °F 29.40 in WNW 9.0 mph 35.0 mph 87 % 0.00 in 0 W/m2
20:05 34.0 °F 30.5 °F 29.41 in NW 10.0 mph 35.0 mph 87 % 0.00 in 0 W/m2
20:10 34.0 °F 30.3 °F 29.40 in WNW 12.0 mph 35.0 mph 86 % 0.00 in 0 W/m2
20:15 34.1 °F 30.4 °F 29.41 in WNW 13.0 mph 35.0 mph 86 % 0.00 in 0 W/m2
20:20 34.1 °F 30.4 °F 29.41 in WNW 11.0 mph 11.0 mph 86 % 0.00 in 0 W/m2
20:25 34.0 °F 30.5 °F 29.41 in West 10.0 mph 35.0 mph 87 % 0.00 in 0 W/m2
20:35 33.9 °F 30.4 °F 29.41 in WNW 10.0 mph 13.0 mph 87 % 0.00 in 0 W/m2
20:40 33.9 °F 30.7 °F 29.41 in NW 11.0 mph 11.0 mph 88 % 0.00 in 0 W/m2
20:45 33.8 °F 30.6 °F 29.41 in WNW 10.0 mph 35.0 mph 88 % 0.00 in 0 W/m2
20:50 33.6 °F 30.4 °F 29.41 in WNW 9.0 mph 35.0 mph 88 % 0.00 in 0 W/m2
20:55 33.6 °F 30.7 °F 29.41 in West 9.0 mph 35.0 mph 89 % 0.00 in 0 W/m2
21:00 33.5 °F 30.6 °F 29.41 in WNW 9.0 mph 35.0 mph 89 % 0.00 in 0 W/m2
21:10 33.6 °F 30.7 °F 29.41 in WNW 10.0 mph 10.0 mph 89 % 0.00 in 0 W/m2
21:15 33.6 °F 30.7 °F 29.42 in NW 10.0 mph 12.0 mph 89 % 0.00 in 0 W/m2
21:20 33.6 °F 30.7 °F 29.42 in West 9.0 mph 9.0 mph 89 % 0.00 in 0 W/m2
21:25 33.7 °F 30.8 °F 29.42 in WNW 10.0 mph 14.0 mph 89 % 0.00 in 0 W/m2
21:30 33.8 °F 30.6 °F 29.42 in WNW 10.0 mph 35.0 mph 88 % 0.00 in 0 W/m2
21:35 33.8 °F 30.9 °F 29.42 in WNW 10.0 mph 35.0 mph 89 % 0.00 in 0 W/m2
21:45 33.9 °F 31.0 °F 29.43 in NW 10.0 mph 35.0 mph 89 % 0.00 in 0 W/m2
21:50 33.9 °F 30.7 °F 29.43 in NW 11.0 mph 35.0 mph 88 % 0.00 in 0 W/m2
21:55 33.9 °F 30.7 °F 29.44 in WSW 11.0 mph 35.0 mph 88 % 0.00 in 0 W/m2
22:00 33.9 °F 30.7 °F 29.44 in West 10.0 mph 10.0 mph 88 % 0.00 in 0 W/m2
22:05 33.8 °F 30.6 °F 29.44 in West 9.0 mph 35.0 mph 88 % 0.00 in 0 W/m2
22:10 33.8 °F 30.6 °F 29.44 in WSW 9.0 mph 35.0 mph 88 % 0.00 in 0 W/m2
22:15 33.8 °F 30.6 °F 29.44 in WNW 9.0 mph 35.0 mph 88 % 0.00 in 0 W/m2
22:25 33.6 °F 30.4 °F 29.44 in WNW 8.0 mph 35.0 mph 88 % 0.00 in 0 W/m2
22:30 33.6 °F 30.4 °F 29.45 in NW 9.0 mph 35.0 mph 88 % 0.00 in 0 W/m2
22:35 33.7 °F 30.5 °F 29.45 in West 10.0 mph 35.0 mph 88 % 0.00 in 0 W/m2
22:40 33.6 °F 30.1 °F 29.45 in West 9.0 mph 9.0 mph 87 % 0.00 in 0 W/m2
22:45 33.6 °F 30.1 °F 29.45 in WNW 8.0 mph 35.0 mph 87 % 0.00 in 0 W/m2
22:50 33.5 °F 30.0 °F 29.45 in WNW 8.0 mph 8.0 mph 87 % 0.00 in 0 W/m2
23:00 33.5 °F 30.0 °F 29.45 in NNW 7.0 mph 35.0 mph 87 % 0.00 in 0 W/m2
23:05 33.7 °F 30.2 °F 29.46 in WNW 8.0 mph 35.0 mph 87 % 0.00 in 0 W/m2
23:10 33.8 °F 30.3 °F 29.46 in West 9.0 mph 35.0 mph 87 % 0.00 in 0 W/m2
23:15 34.0 °F 30.5 °F 29.46 in WNW 10.0 mph 35.0 mph 87 % 0.00 in 0 W/m2
23:20 34.2 °F 31.0 °F 29.46 in West 11.0 mph 35.0 mph 88 % 0.00 in 0 W/m2
23:25 34.4 °F 31.2 °F 29.46 in NW 12.0 mph 35.0 mph 88 % 0.00 in 0 W/m2
23:30 34.5 °F 31.3 °F 29.47 in WNW 11.0 mph 11.0 mph 88 % 0.00 in 0 W/m2
23:39 34.5 °F 31.3 °F 29.47 in WNW 10.0 mph 35.0 mph 88 % 0.00 in 0 W/m2
23:45 34.5 °F 31.3 °F 29.48 in WNW 10.0 mph 35.0 mph 88 % 0.00 in 0 W/m2
23:50 34.4 °F 31.2 °F 29.49 in NW 10.0 mph 10.0 mph 88 % 0.00 in 0 W/m2
23:55 34.3 °F 31.1 °F 29.49 in WNW 10.0 mph 35.0 mph 88 % 0.00 in 0 W/m2
Delerius-Weather
Compliments of Weather Underground - 2 mb

Data updates at regular intervals.